Find Starlink 3958

NORAD ID: 52535 Int'l Des: 2022-051 Owner: SPXS Country: US Constellation: starlink operational
LEOCIRCULAR

現在のビュー

3D地球を読み込み中...

About Starlink 3958

Starlink 3958 (NORAD 52535) is a starlink constellation satellite (v1.5) launched May 13, 2022 by SPXS of US. It operates in LEO, CIRCULAR orbit with a mass of 297.00 kg.

次回通過

Passes for default location (London). Set your location on the main map for personalized predictions.

高度履歴

Loading altitude history...

軌道要素

1 52535U 22051C 26263.44759191 .00000490 00000-0 26222-4 0 9990
2 52535 53.1603 322.1581 0001201 62.1289 297.9835 15.33553826241016
Epoch: Sep 20, 2026 • Age: 32 hours

現在のステータス

高度 469.0 km
遠地点 / 近地点 N/A
速度 7.64 km/s
衛星直下点 44.68°N, 88.49°E
打ち上げ日 May 13, 2022
運用期間 4.3 years
タイプ internet

技術仕様

分類 Payload
質量 297.00 kg
乾燥質量 275.00 kg
長さ 0.20 m
スパン 9.00 m
形状 ? Box + pan
製造者 SPXS
バスタイプ Starlink
フェーズステータス In Orbit
所有者/国 SPXS/US

Most Searched